Portada
METAR-TAF:

METAR-TAF

Aeropuertos :

Valence, Francia

latitud: 44-54-58N, longitud: 4-58-06E, altitud: 160 m

Observación

El informe se hizo hace 10 minutos, a las 10:30 UTC
Viento 10 kt del norte-noroeste
Temperatura 18°C
Humedad 64%
Presión 1025 hPa
Visibilidad: 9000 m

METAR: LFLU 201030Z AUTO 34010KT 9000 NSC 18/11 Q1025

Hora: 12:40 (10:40 UTC)


TAF: falta

Observaciones y pronósticos meteorológicos de más de 4000 aeropuertos (mensajes METAR y TAF).

Los puntos amarillos y rojos representan las estaciones disponibles.

Ponga el ratón en el punto deseado para ver el nombre de la estación.

Haga clic para ver las observaciones y los pronósticos meteorológicos.

Para cambiar el mapa : haga clic en los botones verdes con una cruz de color negro para hacer un zoom, en el botón verde con un guión para alejar o en las flechas verdes para mapas adyacentes.


METAR-TAF: